Change the Weather History Date:

Monday, September 30, 2013

  Actual Average Record
Temperature  
Mean Temperature 62 °F -  
Max Temperature 75 °F 76 °F 84 °F (2011)
Min Temperature 50 °F 56 °F 46 °F (1999)
Degree Days  
Heating Degree Days 3    
Growing Degree Days 12 (Base 50)    
Moisture  
Dew Point 53 °F    
Average Humidity 78    
Maximum Humidity 97    
Minimum Humidity 43    
Precipitation  
Precipitation 0.00 in - - ()
Sea Level Pressure  
Sea Level Pressure 30.08 in    
Wind  
Wind Speed 3 mph (North)    
Max Wind Speed 9 mph    
Max Gust Speed -    
Visibility 12 miles    
Events      
Averages and records for this station are not official NWS values.
T = Trace of Precipitation, MM = Missing Value Source: NWS Daily Summary

Daily Weather History Graph

Daily Weather History Graph

Search for Another Location

Airport or City:

Trip Planner

Search our weather history database for the weather conditions in past years. The results will help you decide how hot, cold, wet, or windy it might be!

Date:

Astronomy

Sep. 30, 2013 Rise Set
Actual Time 7:12 AM EDT 7:03 PM EDT
Civil Twilight 6:46 AM EDT 7:28 PM EDT
Nautical Twilight 6:17 AM EDT 7:57 PM EDT
Astronomical Twilight 5:47 AM EDT 8:27 PM EDT
Moon 2:56 AM EDT (9/30) 4:25 PM EDT (9/30)
Length of Visible Light 12h 41m
Length of Day
11h 50m
Waning Crescent, 19% of the Moon is Illuminated
Sep 30
Waning Crescent
Oct 4
New
Oct 11
First Quarter
Oct 18
Full
Oct 26
Last Quarter

Hourly Weather History & Observations

Time (EDT) Temp. Dew Point Humidity Pressure Visibility Wind Dir Wind Speed Gust Speed Precip Events Conditions
12:56 AM 50.5 °F 49.3 °F 95% 30.06 in 12.0 mi North 1.2 mph - N/A   Clear
1:56 AM 50.4 °F 49.1 °F 95% 30.07 in 12.0 mi NNW 3.5 mph - N/A   Clear
2:56 AM 51.3 °F 49.6 °F 94% 30.06 in 12.0 mi NNW 2.3 mph - N/A   Mostly Cloudy
3:56 AM 51.4 °F 50.0 °F 95% 30.06 in 12.0 mi North 2.3 mph - N/A   Mostly Cloudy
4:56 AM 52.7 °F 51.3 °F 95% 30.07 in 12.0 mi NW 2.3 mph - N/A   Mostly Cloudy
5:56 AM 52.7 °F 51.3 °F 95% 30.09 in 12.0 mi NNW 2.3 mph - N/A   Mostly Cloudy
6:56 AM 52.9 °F 51.4 °F 95% 30.11 in 12.0 mi Variable 1.2 mph - N/A   Mostly Cloudy
7:56 AM 53.6 °F 52.2 °F 95% 30.11 in 12.0 mi NNW 2.3 mph - N/A   Mostly Cloudy
8:56 AM 56.7 °F 54.7 °F 93% 30.12 in 12.0 mi NNE 3.5 mph - N/A   Mostly Cloudy
9:56 AM 61.3 °F 57.0 °F 86% 30.12 in 12.0 mi NE 3.5 mph - N/A   Partly Cloudy
10:56 AM 66.7 °F 57.2 °F 71% 30.12 in 12.0 mi Variable 2.3 mph - N/A   Clear
11:56 AM 69.4 °F 56.5 °F 63% 30.11 in 12.0 mi NE 5.8 mph - N/A   Partly Cloudy
12:56 PM 70.2 °F 55.0 °F 59% 30.09 in 12.0 mi NE 3.5 mph - N/A   Clear
1:56 PM 73.2 °F 50.4 °F 44% 30.06 in 12.0 mi Variable 5.8 mph - N/A   Partly Cloudy
2:56 PM 74.3 °F 52.5 °F 46% 30.05 in 12.0 mi Variable 6.9 mph - N/A   Partly Cloudy
3:56 PM 74.5 °F 51.6 °F 45% 30.04 in 12.0 mi NNE 9.2 mph - N/A   Mostly Cloudy
4:56 PM 74.1 °F 50.0 °F 43% 30.04 in 12.0 mi Variable 3.5 mph - N/A   Clear
5:56 PM 74.1 °F 50.2 °F 43% 30.04 in 12.0 mi North 3.5 mph - N/A   Clear
6:56 PM 68.7 °F 54.1 °F 60% 30.05 in 12.0 mi East 1.2 mph - N/A   Clear
7:56 PM 61.0 °F 54.5 °F 79% 30.07 in 12.0 mi ENE 1.2 mph - N/A   Clear
8:56 PM 57.9 °F 54.0 °F 87% 30.08 in 12.0 mi SSW 1.2 mph - N/A   Clear
9:56 PM 56.8 °F 54.7 °F 92% 30.10 in 12.0 mi Variable 1.2 mph - N/A   Clear
10:56 PM 55.2 °F 54.3 °F 97% 30.11 in 12.0 mi Variable 2.3 mph - N/A   Clear
11:56 PM 53.1 °F 51.3 °F 94% 30.11 in 12.0 mi WNW 2.3 mph - N/A   Clear